This demonstration page uses our WeatherBlox Daily Observations layout. Learn more.

Left ArrowRight Arrow

31.84235, -102.49876

Hourly Observations for March 6, 2015

Temp ( °F °C ) Dew Point ( °F °C ) Humidity (%) Winds ( mph kmh ) Pressure ( in mb ) Visibility ( mi km ) Precip ( " mm )
12:53 am 00:53 Clear 30 -1.1 24 -4.4 79 79 Calm 30.47 1032 9 14 0.00 0.00
1:53 am 01:53 Clear 29 -1.7 24 -4.4 82 82 Calm 30.45 1031 8 13 0.00 0.00
2:53 am 02:53 Clear 27 -2.8 23 -5 85 85 E 3 6 30.44 1031 7 11 0.00 0.00
3:53 am 03:53 Clear with Mist and Fog 25 -3.9 22 -5.6 88 88 ESE 7 11 30.43 1031 6 10 0.00 0.00
4:53 am 04:53 Clear with Mist and Fog 25 -3.9 21 -6.1 85 85 SSE 6 9 30.42 1030 6 10 0.00 0.00
5:53 am 05:53 Clear 27 -2.8 19 -7.2 72 72 S 7 11 30.43 1031 10 16 0.00 0.00
6:53 am 06:53 Clear 26 -3.3 19 -7.2 75 75 SSE 8 13 30.44 1031 10 16 0.00 0.00
7:53 am 07:53 Sunny 29 -1.7 21 -6.1 72 72 SSE 9 15 30.44 1031 10 16 0.00 0.00
8:53 am 08:53 Sunny 33 0.6 24 -4.4 70 70 S 10 17 30.47 1032 10 16 0.00 0.00
9:53 am 09:53 Sunny 38 3.3 25 -3.9 60 60 SSW 13 20 30.48 1032 10 16 0.00 0.00
10:53 am 10:53 Sunny 42 5.6 27 -2.8 55 55 S 13 20 30.46 1032 10 16 0.00 0.00
11:53 am 11:53 Sunny 46 7.8 28 -2.2 50 50 S 9 15 30.44 1031 10 16 0.00 0.00
12:30 pm 12:30 Partly Cloudy 48 8.9 29 -1.7 48 48 S 9 15 30.45 1031 10 16 0.00 0.00
12:53 pm 12:53 Mostly Sunny 49 9.4 28 -2.2 44 44 SW 9 15 30.41 1030 10 16 0.00 0.00
1:53 pm 13:53 Sunny 52 11.1 29 -1.7 41 41 SSW 9 15 30.37 1029 10 16 0.00 0.00
2:53 pm 14:53 Sunny 54 12.2 26 -3.3 34 34 SSE 8 13 30.34 1027 10 16 0.00 0.00
3:53 pm 15:53 Sunny 55 12.8 25 -3.9 31 31 S 7 11 30.32 1027 10 16 0.00 0.00
4:53 pm 16:53 Sunny 56 13.3 26 -3.3 32 32 SSW 7 11 30.31 1026 10 16 0.00 0.00
5:53 pm 17:53 Sunny 56 13.3 26 -3.3 32 32 SSE 7 11 30.29 1026 10 16 0.00 0.00
6:53 pm 18:53 Clear 52 11.1 28 -2.2 40 40 SSE 6 9 30.31 1026 10 16 0.00 0.00
7:53 pm 19:53 Clear 47 8.3 28 -2.2 48 48 SSE 7 11 30.33 1027 10 16 0.00 0.00
8:53 pm 20:53 Clear 46 7.8 30 -1.1 54 54 S 8 13 30.34 1027 10 16 0.00 0.00
9:53 pm 21:53 Clear 46 7.8 29 -1.7 51 51 S 10 17 30.33 1027 10 16 0.00 0.00
10:53 pm 22:53 Clear 43 6.1 28 -2.2 56 56 S 9 15 30.34 1027 10 16 0.00 0.00
11:53 pm 23:53 Clear 41 5 27 -2.8 57 57 S 8 13 30.33 1027 10 16 0.00 0.00

Powered by AerisWeather